Cloud_Cover
0 0 0 0 0 0 0 0 0 0 0 0 0 0 0 0 0 0 0 0 0 0 0 0 0 0 0 0 0 0 0 0 0 0 0 0 0 0 2 4 5 23 1
0 0 0 0 0 0 0 0 0 0 0 0 0 0 0 0 0 0 0 0 0 0 0 0 0 0 0 0 0 0 0 0 0 0 0 0 4 5 5 5 5 5 3
0 0 0 0 0 0 0 0 0 0 0 0 0 0 0 0 0 0 0 0 0 0 0 0 0 0 0 0 0 0 0 0 0 0 0 0 4 5 5 5 5 5 5
0 0 0 0 0 0 0 0 0 0 0 0 0 0 0 0 0 0 0 0 0 0 0 0 0 0 0 0 0 0 0 0 0 0 0 0 0 5 15 65 52 18 79
0 0 0 0 0 0 0 0 0 0 0 0 0 0 0 0 0 0 0 0 0 0 0 0 0 0 0 0 0 0 0 0 0 0 0 0 0 0 4 11 58 92 57
0 0 0 0 0 0 0 0 0 0 0 0 0 0 0 0 0 0 0 0 0 0 0 0 0 0 0 0 0 0 0 0 0 0 0 0 0 0 0 0 5 5 12
1 0 0 0 0 0 0 0 0 0 0 0 0 0 0 0 0 0 0 0 0 0 0 0 0 0 0 0 0 0 0 1 5 1 0 0 0 0 0 0 0 2 8
100 6 10 0 0 0 0 0 0 0 0 0 0 0 0 0 0 0 0 0 0 0 0 0 0 0 0 0 0 0 0 5 5 16 5 4 4 0 0 5 2 0 2
100 100 18 0 0 0 0 0 0 0 0 0 0 0 0 0 0 0 0 0 0 0 0 0 0 0 0 0 0 0 0 5 5 9 5 16 5 5 0 8 24 5 5
100 100 84 0 0 0 0 0 0 0 0 0 0 0 0 0 0 0 0 0 0 0 0 0 0 0 0 0 0 0 0 4 2 5 12 5 25 0 0 0 0 5 49
100 100 100 87 0 0 0 0 0 0 0 0 0 0 0 0 0 0 0 0 0 0 0 0 0 0 0 0 0 0 0 5 5 5 5 5 2 5 5 5 5 5 16
100 100 100 15 8 0 0 0 0 0 0 0 0 5 0 0 3 31 6 6 0 0 0 0 0 0 0 0 0 0 0 2 5 5 5 5 0 0 0 4 9 52 40
93 100 18 0 5 5 0 0 0 0 0 0 10 1 0 0 1 58 42 9 0 0 0 0 0 0 0 6 0 0 0 7 0 0 0 0 0 4 5 21 61 25 58
92 100 98 6 5 5 4 0 0 1 0 12 20 1 0 0 0 0 4 26 46 18 0 0 0 0 56 17 45 11 3 5 1 0 0 2 7 8 51 100 95 100 100
81 44 92 96 9 74 5 0 0 0 0 0 5 4 7 11 0 0 0 0 0 0 0 0 0 0 0 0 2 54 31 33 11 3 6 24 86 93 62 74 97 100 100
7 74 100 100 17 11 13 7 53 20 2 0 0 0 0 32 0 0 0 0 1 49 5 0 0 0 0 0 0 5 71 99 87 36 21 5 12 44 9 64 94 77 100
21 22 100 100 100 99 13 5 0 34 100 98 58 2 16 42 100 100 100 0 63 74 0 0 0 0 0 0 0 5 39 69 75 99 88 13 15 20 45 56 57 45 100
62 54 64 47 100 81 8 6 84 1 5 99 98 79 100 100 100 100 100 82 82 50 0 3 5 0 0 3 0 3 88 100 100 100 100 95 61 100 89 85 93 62 57
80 96 89 68 100 100 100 100 100 55 3 23 98 100 100 100 100 100 100 81 51 53 35 100 13 0 0 5 5 80 80 88 100 97 97 100 100 100 97 48 47 98 90
16 82 100 90 98 100 100 100 100 87 37 22 19 5 99 100 100 100 100 100 100 100 100 100 16 81 96 44 5 5 12 46 76 100 97 100 100 100 55 26 32 75 100
0 0 44 100 100 100 100 70 100 63 68 100 100 100 100 100 100 100 100 100 98 78 60 36 5 4 5 4 5 18 23 4 2 42 100 100 100 100 100 99 92 80 98
99 8 90 100 100 100 100 100 89 68 100 100 100 100 100 100 100 100 100 100 100 100 100 84 100 98 95 63 72 100 20 7 41 37 100 100 57 49 64 56 93 100 100
100 11 98 58 100 100 99 100 100 100 100 100 100 100 100 100 100 100 100 100 100 100 83 43 100 100 100 100 79 37 43 58 100 100 66 83 59 98 29 27 28 99 87
100 83 61 100 100 100 100 100 100 99 100 100 100 100 100 100 100 100 100 100 100 100 100 42 66 84 100 100 100 38 93 100 100 100 100 100 100 99 100 47 31 21 2
100 100 100 100 100 100 100 100 100 100 100 100 100 100 100 100 100 100 100 100 100 100 97 90 92 98 100 100 100 100 71 100 100 100 100 100 100 16 100 69 2 30 19
100 100 100 100 100 100 100 100 100 100 100 100 100 100 100 100 100 100 100 100 100 100 100 98 87 99 100 100 100 46 57 64 100 99 79 91 100 100 100 100 95 96 100